Grand Island, NE

3:49 PM CDT on September 18, 2019 (GMT -0500)
Central Nebraska Regional

Weather History for KGRI - August, 2019

Change the Weather History Date:

Sunday, August 25, 2019

  Actual Average Record
Temperature  
Mean Temperature 69 °F 73 °F  
Max Temperature 74 °F 85 °F 104 °F (1912)
Min Temperature 64 °F 61 °F 42 °F (1934)
Degree Days  
Heating Degree Days 0 0  
Month to date heating degree days 0 0  
Since 1 June heating degree days 14 26  
Since 1 July heating degree days 0 2  
Cooling Degree Days 4 8  
Month to date cooling degree days 224 242  
Year to date cooling degree days 903 869  
Since 1 June cooling degree days 845 804  
Growing Degree Days 18 (Base 50)    
Moisture  
Dew Point 64 °F    
Average Humidity 83    
Maximum Humidity 93    
Minimum Humidity 73    
Precipitation  
Precipitation T in 0.09 in 2.28 in (1987)
Month to date precipitation 10.03 2.59  
Year to date precipitation 31.67 20.24  
Snow  
Snow 0.00 in 0.00 in - ()
Month to date snowfall 0.0 0.0  
Since 1 June snowfall 0.0 0.0  
Since 1 July snowfall 0.0 0.0  
Snow Depth 0.00 in    
Sea Level Pressure  
Sea Level Pressure 29.87 in    
Wind  
Wind Speed 8 mph (SE)    
Max Wind Speed 15 mph    
Max Gust Speed 22 mph    
Visibility 9 miles    
Events      
T = Trace of Precipitation, MM = Missing Value Source: NWS Daily Summary

Daily Weather History Graph

Daily Weather History Graph

Search for Another Location

Airport or City:

Astronomy

Aug. 25, 2019 Rise Set
Actual Time 6:52 AM CDT 8:17 PM CDT
Civil Twilight 6:24 AM CDT 8:45 PM CDT
Nautical Twilight 5:49 AM CDT 9:20 PM CDT
Astronomical Twilight 5:13 AM CDT 9:56 PM CDT
Moon 1:27 AM CDT (8/25) 4:41 PM CDT (8/25)
Length of Visible Light 14h 21m
Length of Day
13h 24m
Waning Crescent, 29% of the Moon is Illuminated
Aug 25
Waning Crescent
Aug 30
New
Sep 5
First Quarter
Sep 13
Full
Sep 21
Last Quarter

Hourly Weather History & Observations

Time (CDT) Temp. Dew Point Humidity Pressure Visibility Wind Dir Wind Speed Gust Speed Precip Events Conditions
12:53 AM 66.0 °F 63.0 °F 90% 29.95 in 7.0 mi SE 13.8 mph 19.6 mph N/A   Overcast
1:53 AM 66.0 °F 63.0 °F 90% 29.95 in 10.0 mi SE 5.8 mph - N/A   Overcast
2:53 AM 64.9 °F 63.0 °F 93% 29.93 in 5.0 mi ESE 6.9 mph - 0.00 in   Overcast
3:19 AM 64.9 °F 63.0 °F 93% 29.93 in 6.0 mi SE 10.4 mph - N/A   Overcast
3:53 AM 64.9 °F 63.0 °F 93% 29.93 in 5.0 mi ESE 6.9 mph - N/A   Overcast
4:53 AM 64.0 °F 62.1 °F 93% 29.90 in 6.0 mi SE 8.1 mph - N/A   Overcast
5:53 AM 64.0 °F 62.1 °F 93% 29.90 in 10.0 mi SE 5.8 mph - N/A   Overcast
6:53 AM 64.0 °F 61.0 °F 90% 29.90 in 10.0 mi SSE 8.1 mph - N/A   Overcast
7:53 AM 64.0 °F 61.0 °F 90% 29.89 in 10.0 mi ESE 8.1 mph - N/A   Overcast
8:53 AM 64.0 °F 61.0 °F 90% 29.88 in 10.0 mi ESE 9.2 mph - N/A   Overcast
9:53 AM 64.9 °F 62.1 °F 90% 29.89 in 10.0 mi SE 8.1 mph - N/A   Overcast
10:53 AM 66.0 °F 63.0 °F 90% 29.90 in 10.0 mi SSE 5.8 mph - N/A   Overcast
11:16 AM 66.9 °F 63.0 °F 87% 29.92 in 10.0 mi SE 8.1 mph - N/A   Overcast
11:53 AM 66.9 °F 63.0 °F 87% 29.89 in 10.0 mi SSE 9.2 mph - N/A   Overcast
12:44 PM 68.0 °F 64.0 °F 87% 29.91 in 10.0 mi SSE 8.1 mph - N/A   Overcast
12:53 PM 68.0 °F 64.0 °F 87% 29.89 in 10.0 mi SE 9.2 mph - N/A   Overcast
1:53 PM 69.1 °F 64.9 °F 87% 29.87 in 10.0 mi SE 6.9 mph - N/A   Overcast
2:11 PM 70.0 °F 64.9 °F 84% 29.88 in 10.0 mi SSE 10.4 mph - N/A   Overcast
2:18 PM 70.0 °F 64.9 °F 84% 29.88 in 10.0 mi SSE 10.4 mph - N/A   Overcast
2:53 PM 72.0 °F 64.9 °F 78% 29.84 in 10.0 mi SE 9.2 mph - N/A   Overcast
3:53 PM 73.0 °F 64.9 °F 76% 29.81 in 10.0 mi SE 9.2 mph - N/A   Mostly Cloudy
4:53 PM 73.0 °F 66.0 °F 79% 29.80 in 10.0 mi SE 8.1 mph - N/A   Overcast
5:53 PM 73.9 °F 64.9 °F 73% 29.79 in 10.0 mi SE 8.1 mph - N/A   Overcast
6:53 PM 72.0 °F 64.9 °F 78% 29.80 in 10.0 mi SE 10.4 mph - N/A   Overcast
7:53 PM 71.1 °F 64.9 °F 81% 29.79 in 10.0 mi ESE 8.1 mph - N/A   Overcast
9:51 PM 69.8 °F 64.4 °F 83% 29.81 in 10.0 mi ESE 9.2 mph - N/A   Scattered Clouds
9:53 PM 69.1 °F 64.0 °F 84% 29.80 in 10.0 mi ESE 9.2 mph - N/A   Partly Cloudy
10:34 PM 68.0 °F 66.0 °F 93% 29.82 in 10.0 mi ESE 9.2 mph - N/A   Scattered Clouds
10:43 PM 69.1 °F 66.0 °F 90% 29.82 in 10.0 mi ESE 9.2 mph - N/A   Mostly Cloudy
10:53 PM 69.1 °F 66.0 °F 90% 29.81 in 10.0 mi ESE 10.4 mph - N/A   Overcast
11:53 PM 68.0 °F 64.9 °F 90% 29.80 in 10.0 mi SE 13.8 mph 20.7 mph N/A   Overcast